datetime,ave reservoir elevation
2013-12-24,4139.53
2013-12-25,4139.55
2013-12-26,4139.56
2013-12-27,4139.58
2013-12-28,4139.6
2013-12-29,4139.62
2013-12-30,4139.64
2013-12-31,4139.65
2014-01-01,4139.67
2014-01-02,4139.69
2014-01-03,4139.7
2014-01-04,4139.72
2014-01-05,4139.74
2014-01-06,4139.76
2014-01-07,4139.78
2014-01-08,4139.82
2014-01-09,4139.84
2014-01-10,4139.87
2014-01-11,4139.92
2014-01-12,4139.96
2014-01-13,4139.96
2014-01-14,4139.98
2014-01-15,4140.0
2014-01-16,4140.02
2014-01-17,4140.04
2014-01-18,4140.06
2014-01-19,4140.08
2014-01-20,4140.1
2014-01-21,4140.12
2014-01-22,4140.13
2014-01-23,4140.13
2014-01-24,4140.16
2014-01-25,4140.19
2014-01-26,4140.21
2014-01-27,4140.22
2014-01-28,4140.25
2014-01-29,4140.32
2014-01-30,4140.32
2014-01-31,4140.34
2014-02-01,4140.37
2014-02-02,4140.39
2014-02-03,4140.38
2014-02-04,4140.42
2014-02-05,4140.41
2014-02-06,4140.49
2014-02-07,4140.63
2014-02-08,4140.67
2014-02-09,4140.59
2014-02-10,4140.61
2014-02-11,4140.71
2014-02-12,4140.84
2014-02-13,4140.87
2014-02-14,4140.97
2014-02-15,4141.26
2014-02-16,4141.21
2014-02-17,4141.32
2014-02-18,4141.37
2014-02-19,4141.3
2014-02-20,4141.39
2014-02-21,4141.37
2014-02-22,4141.4
2014-02-23,4141.43
2014-02-24,4141.46
2014-02-25,4141.48
2014-02-26,4141.55
2014-02-27,4141.58
2014-02-28,4141.54
2014-03-01,4141.62
2014-03-02,4141.74
2014-03-03,4141.78
2014-03-04,4141.77
2014-03-05,4141.89
2014-03-06,4141.84
2014-03-07,4141.75
2014-03-08,4141.79
2014-03-09,4141.91
2014-03-10,4141.85
2014-03-11,4141.91
2014-03-12,4141.96
2014-03-13,4142.0
2014-03-14,4142.04
2014-03-15,4142.07
2014-03-16,4142.17
2014-03-17,4142.02
2014-03-18,4142.09
2014-03-19,4142.11
2014-03-20,4142.08
2014-03-21,4142.04
2014-03-22,4142.08
2014-03-23,4142.11
2014-03-24,4142.14
2014-03-25,4142.27
2014-03-26,4142.24
2014-03-27,4142.27
2014-03-28,4142.37
2014-03-29,4142.28
2014-03-30,4142.27
2014-03-31,4142.43
2014-04-01,4142.28
2014-04-02,4142.28
2014-04-03,4142.37
2014-04-04,4142.34
2014-04-05,4142.37
2014-04-06,4142.36
2014-04-07,4142.35
2014-04-08,4142.36
2014-04-09,4142.36
2014-04-10,4142.36
2014-04-11,4142.35
2014-04-12,4142.33
2014-04-13,4142.34
2014-04-14,4142.35
2014-04-15,4142.3
2014-04-16,4142.31
2014-04-17,4142.31
2014-04-18,4142.31
2014-04-19,4142.29
2014-04-20,4142.29
2014-04-21,4142.39
2014-04-22,4142.23
2014-04-23,4142.36
2014-04-24,4142.32
2014-04-25,4142.2
2014-04-26,4142.23
2014-04-27,4142.22
2014-04-28,4142.19
2014-04-29,4142.18
2014-04-30,4142.17
2014-05-01,4142.16
2014-05-02,4142.16
2014-05-03,4142.15
2014-05-04,4142.17
2014-05-05,4142.07
2014-05-06,4142.03
2014-05-07,4142.05
2014-05-08,4142.12
2014-05-09,4142.08
2014-05-10,4141.97
2014-05-11,4142.0
2014-05-12,4141.98
2014-05-13,4141.98
2014-05-14,4141.97
2014-05-15,4141.96
2014-05-16,4141.92
2014-05-17,4141.9
2014-05-18,4141.85
2014-05-19,4141.85
2014-05-20,4141.77
2014-05-21,4141.8
2014-05-22,4141.8
2014-05-23,4141.77
2014-05-24,4141.77
2014-05-25,4141.75
2014-05-26,4141.7
2014-05-27,4141.65
2014-05-28,4141.6
2014-05-29,4141.6
2014-05-30,4141.56
2014-05-31,4141.53
2014-06-01,4141.5
2014-06-02,4141.46
2014-06-03,4141.43
2014-06-04,4141.38
2014-06-05,4141.32
2014-06-06,4141.27
2014-06-07,4141.22
2014-06-08,4141.19
2014-06-09,4141.15
2014-06-10,4141.13
2014-06-11,4141.07
2014-06-12,4141.05
2014-06-13,4140.98
2014-06-14,4140.96
2014-06-15,4140.88
2014-06-16,4140.78
2014-06-17,4140.8
2014-06-18,4140.79
2014-06-19,4140.75
2014-06-20,4140.69
2014-06-21,4140.63
2014-06-22,4140.6
2014-06-23,4140.47
2014-06-24,4140.53
2014-06-25,4140.51
2014-06-26,4140.5
2014-06-27,4140.5
2014-06-28,4140.42
2014-06-29,4140.38
2014-06-30,4140.33
2014-07-01,4140.31
2014-07-02,4140.29
2014-07-03,4140.25
2014-07-04,4140.22
2014-07-05,4140.18
2014-07-06,4140.13
2014-07-07,4140.07
2014-07-08,4140.05
2014-07-09,4140.07
2014-07-10,4140.01
2014-07-11,4139.96
2014-07-12,4139.93
2014-07-13,4139.86
2014-07-14,4139.83
2014-07-15,4139.78
2014-07-16,
2014-07-17,4139.71
2014-07-18,4139.66
2014-07-19,4139.6
2014-07-20,4139.57
2014-07-21,4139.57
2014-07-22,4139.58
2014-07-23,4139.5
2014-07-24,4139.38
2014-07-25,4139.34
2014-07-26,4139.33
2014-07-27,4139.31
2014-07-28,4139.28
2014-07-29,4139.29
2014-07-30,4139.25
2014-07-31,4139.19
2014-08-01,4139.14
2014-08-02,4139.12
2014-08-03,4139.09
2014-08-04,4139.07
2014-08-05,4139.04
2014-08-06,4139.02
2014-08-07,4138.98
2014-08-08,4138.94
2014-08-09,4138.91
2014-08-10,4138.93
2014-08-11,4138.94
2014-08-12,4138.89
2014-08-13,4138.87
2014-08-14,4138.87
2014-08-15,4138.87
2014-08-16,4138.85
2014-08-17,4138.82
2014-08-18,4138.8
2014-08-19,4138.76
2014-08-20,4138.74
2014-08-21,4138.73
2014-08-22,4138.68
2014-08-23,4138.63
2014-08-24,4138.6
2014-08-25,4138.53
2014-08-26,4138.59
2014-08-27,4138.57
2014-08-28,4138.55
2014-08-29,4138.5
2014-08-30,4138.48
2014-08-31,4138.43
2014-09-01,4138.43
2014-09-02,4138.38
2014-09-03,4138.35
2014-09-04,4138.24
2014-09-05,4138.23
2014-09-06,4138.25
2014-09-07,4138.27
2014-09-08,4138.22
2014-09-09,4138.2
2014-09-10,4138.18
2014-09-11,
2014-09-12,
2014-09-13,4138.12
2014-09-14,4138.11
2014-09-15,4138.19
2014-09-16,4138.11
2014-09-17,4138.25
2014-09-18,
2014-09-19,
2014-09-20,4137.99
2014-09-21,4137.99
2014-09-22,4138.02
2014-09-23,4138.21
2014-09-24,4138.16
2014-09-25,4138.23
2014-09-26,4138.0
2014-09-27,4137.83
2014-09-28,4137.94
2014-09-29,4138.04
2014-09-30,4137.94
2014-10-01,4138.01
2014-10-02,4138.04
2014-10-03,4138.04
2014-10-04,4138.03
2014-10-05,4138.06
2014-10-06,4138.06
2014-10-07,4138.06
2014-10-08,4138.04
2014-10-09,4138.01
2014-10-10,4137.98
2014-10-11,4137.95
2014-10-12,4137.95
2014-10-13,4137.98
2014-10-14,4138.09
2014-10-15,4138.21
2014-10-16,4138.04
2014-10-17,4138.13
2014-10-18,4138.03
2014-10-19,4138.1
2014-10-20,4138.16
2014-10-21,4138.15
2014-10-22,4138.34
2014-10-23,4138.62
2014-10-24,4138.26
2014-10-25,4139.06
2014-10-26,4138.28
2014-10-27,4138.19
2014-10-28,4138.25
2014-10-29,4138.25
2014-10-30,4138.26
2014-10-31,4138.39
2014-11-01,4138.18
2014-11-02,4138.31
2014-11-03,4138.33
2014-11-04,4138.4
2014-11-05,4138.33
2014-11-06,4138.37
2014-11-07,4138.32
2014-11-08,4138.34
2014-11-09,4138.34
2014-11-10,4138.29
2014-11-11,4138.14
2014-11-12,4138.12
2014-11-13,4138.46
2014-11-14,4138.59
2014-11-15,4138.3
2014-11-16,4138.37
2014-11-17,4138.43
2014-11-18,4138.45
2014-11-19,4138.56
2014-11-20,4138.52
2014-11-21,4138.86
2014-11-22,4138.69
2014-11-23,4138.77
2014-11-24,4138.7
2014-11-25,4138.77
2014-11-26,4138.73
2014-11-27,4138.8
2014-11-28,4139.02
2014-11-29,4138.87
2014-11-30,4138.68
2014-12-01,4138.86
2014-12-02,4138.84
2014-12-03,4138.96
2014-12-04,4138.97
2014-12-05,4139.06
2014-12-06,4139.05
2014-12-07,4139.02
2014-12-08,4139.12
2014-12-09,4139.2
2014-12-10,4139.44
2014-12-11,4139.85
2014-12-12,4139.28
2014-12-13,4139.28
2014-12-14,4139.3
2014-12-15,4139.45
2014-12-16,4139.45
2014-12-17,4139.49
2014-12-18,4139.62
2014-12-19,4139.62
2014-12-20,4139.86
2014-12-21,4139.78
2014-12-22,4139.78
2014-12-23,4139.96
2014-12-24,4140.04
2014-12-25,4140.07
2014-12-26,4140.24
2014-12-27,4140.33
2014-12-28,4140.3
2014-12-29,4140.27
2014-12-30,4140.12
2014-12-31,4140.4
2015-01-01,4140.44
2015-01-02,4140.46
2015-01-03,4140.49
2015-01-04,4140.52
2015-01-05,4140.53
2015-01-06,4140.54
2015-01-07,4140.53
2015-01-08,4140.53
2015-01-09,4140.53
2015-01-10,4140.55
2015-01-11,4140.56
2015-01-12,4140.58
2015-01-13,4140.59
2015-01-14,4140.61
2015-01-15,4140.63
2015-01-16,4140.69
2015-01-17,4140.79
2015-01-18,4140.77
2015-01-19,4140.77
2015-01-20,4140.77
2015-01-21,4140.81
2015-01-22,4140.86
2015-01-23,4140.89
2015-01-24,4140.92
2015-01-25,4140.94
2015-01-26,4140.96
2015-01-27,4140.99
2015-01-28,4141.01
2015-01-29,4141.02
2015-01-30,4141.0
2015-01-31,4141.07
2015-02-01,4141.12
2015-02-02,4141.27
2015-02-03,4141.29
2015-02-04,4141.3
2015-02-05,4141.68
2015-02-06,4141.95
2015-02-07,4141.71
2015-02-08,4141.75
2015-02-09,4141.86
2015-02-10,4141.73
2015-02-11,4141.78
2015-02-12,4141.84
2015-02-13,4141.88
2015-02-14,4141.92
2015-02-15,4141.92
2015-02-16,4141.96
2015-02-17,4142.03
2015-02-18,4142.06
2015-02-19,4142.08
2015-02-20,4142.11
2015-02-21,4142.07
2015-02-22,4142.0
2015-02-23,4142.1
2015-02-24,4142.21
2015-02-25,4142.22
2015-02-26,4142.26
2015-02-27,4142.28
2015-02-28,4142.17
2015-03-01,4142.29
2015-03-02,4142.32
2015-03-03,4142.35
2015-03-04,4142.37
2015-03-05,4142.39
2015-03-06,4142.41
2015-03-07,4142.42
2015-03-08,4142.44
2015-03-09,4142.45
2015-03-10,4142.48
2015-03-11,4142.56
2015-03-12,4142.54
2015-03-13,4142.56
2015-03-14,4142.67
2015-03-15,4142.76
2015-03-16,4142.67
2015-03-17,4142.69
2015-03-18,4142.71
2015-03-19,4142.73
2015-03-20,4142.77
2015-03-21,4142.78
2015-03-22,4142.79
2015-03-23,4142.97
2015-03-24,4142.89
2015-03-25,4142.88
2015-03-26,4142.87
2015-03-27,4142.89
2015-03-28,4142.9
2015-03-29,4142.91
2015-03-30,4142.94
2015-03-31,4142.9
2015-04-01,4142.89
2015-04-02,4142.92
2015-04-03,4142.91
2015-04-04,4142.89
2015-04-05,4142.95
2015-04-06,4143.17
2015-04-07,4143.03
2015-04-08,4142.9
2015-04-09,4142.88
2015-04-10,4142.91
2015-04-11,4142.92
2015-04-12,4142.91
2015-04-13,4142.89
2015-04-14,4142.82
2015-04-15,4142.86
2015-04-16,4142.85
2015-04-17,4142.85
2015-04-18,4142.81
2015-04-19,4142.82
2015-04-20,4142.81
2015-04-21,4142.77
2015-04-22,4142.73
2015-04-23,4142.73
2015-04-24,4142.69
2015-04-25,4142.65
2015-04-26,4142.65
2015-04-27,4142.64
2015-04-28,4142.61
2015-04-29,4142.56
2015-04-30,4142.54
2015-05-01,4142.55
2015-05-02,4142.52
2015-05-03,4142.5
2015-05-04,4142.46
2015-05-05,4142.41
2015-05-06,4142.33
2015-05-07,4142.22
2015-05-08,4142.27
2015-05-09,4142.3
2015-05-10,4142.27
2015-05-11,4142.24
2015-05-12,4142.23
2015-05-13,4142.27
2015-05-14,4142.21
2015-05-15,4142.17
2015-05-16,4142.22
2015-05-17,4142.22
2015-05-18,4142.2
2015-05-19,4142.22
2015-05-20,4142.24
2015-05-21,4142.31
2015-05-22,4142.27
2015-05-23,4142.29
2015-05-24,4142.28
2015-05-25,4142.27
2015-05-26,4142.27
2015-05-27,4142.26
2015-05-28,4142.26
2015-05-29,4142.24
2015-05-30,4142.26
2015-05-31,4142.28
2015-06-01,4142.24
2015-06-02,4142.18
2015-06-03,4142.13
2015-06-04,4142.09
2015-06-05,4142.07
2015-06-06,4142.09
2015-06-07,4142.1
2015-06-08,4142.08
2015-06-09,4142.08
2015-06-10,4142.01
2015-06-11,4141.97
2015-06-12,4141.95
2015-06-13,4141.89
2015-06-14,4141.85
2015-06-15,4141.83
2015-06-16,4141.83
2015-06-17,4141.8
2015-06-18,4141.76
2015-06-19,4141.71
2015-06-20,4141.68
2015-06-21,4141.64
2015-06-22,4141.59
2015-06-23,4141.56
2015-06-24,4141.5
2015-06-25,4141.45
2015-06-26,4141.4
2015-06-27,4141.4
2015-06-28,4141.39
2015-06-29,4141.34
2015-06-30,4141.27
2015-07-01,4141.24
2015-07-02,4141.2
2015-07-03,4141.15
2015-07-04,4141.12
2015-07-05,4141.18
2015-07-06,4141.04
2015-07-07,4141.03
2015-07-08,4140.96
2015-07-09,4140.96
2015-07-10,4141.02
2015-07-11,4141.02
2015-07-12,4140.96
2015-07-13,4140.92
2015-07-14,4140.87
2015-07-15,4140.88
2015-07-16,4140.86
2015-07-17,4140.8
2015-07-18,4140.8
2015-07-19,4140.79
2015-07-20,4140.77
2015-07-21,4140.73
2015-07-22,4140.68
2015-07-23,4140.66
2015-07-24,4140.62
2015-07-25,4140.57
2015-07-26,4140.48
2015-07-27,4140.48
2015-07-28,4140.41
2015-07-29,4140.38
2015-07-30,4140.37
2015-07-31,4140.33
2015-08-01,4140.3
2015-08-02,4140.29
2015-08-03,4140.23
2015-08-04,4140.23
2015-08-05,4140.24
2015-08-06,4140.15
2015-08-07,4140.12
2015-08-08,4140.13
2015-08-09,4140.11
2015-08-10,4140.06
2015-08-11,4140.07
2015-08-12,4140.09
2015-08-13,4140.09
2015-08-14,4139.92
2015-08-15,4139.88
2015-08-16,4139.83
2015-08-17,4139.8
2015-08-18,4139.79
2015-08-19,4139.76
2015-08-20,4139.72
2015-08-21,4139.68
2015-08-22,4139.6
2015-08-23,4139.61
2015-08-24,4139.59
2015-08-25,4139.56
2015-08-26,4139.52
2015-08-27,4139.46
2015-08-28,4139.46
2015-08-29,4139.59
2015-08-30,4139.34
2015-08-31,4139.26
2015-09-01,4139.25
2015-09-02,4139.2
2015-09-03,4139.1
2015-09-04,4139.07
2015-09-05,4139.12
2015-09-06,4139.07
2015-09-07,4139.07
2015-09-08,4139.06
2015-09-09,4139.05
2015-09-10,4139.03
2015-09-11,4139.0
2015-09-12,4138.97
2015-09-13,4138.93
2015-09-14,4138.91
2015-09-15,4138.89
2015-09-16,4139.04
2015-09-17,4138.95
2015-09-18,4138.86
2015-09-19,4138.85
2015-09-20,4138.86
2015-09-21,4138.85
2015-09-22,4138.84
2015-09-23,4138.85
2015-09-24,4138.83
2015-09-25,4138.83
2015-09-26,4138.77
2015-09-27,4138.7
2015-09-28,4138.71
2015-09-29,4138.74
2015-09-30,4138.73
2015-10-01,4138.69
2015-10-02,4138.64
2015-10-03,4138.44
2015-10-04,4138.51
2015-10-05,4138.58
2015-10-06,4138.57
2015-10-07,4138.56
2015-10-08,4138.55
2015-10-09,4138.54
2015-10-10,4138.56
2015-10-11,4138.44
2015-10-12,4138.44
2015-10-13,4138.42
2015-10-14,4138.39
2015-10-15,4138.35
2015-10-16,4138.36
2015-10-17,4138.38
2015-10-18,4138.34
2015-10-19,4138.33
2015-10-20,4138.3
2015-10-21,4138.3
2015-10-22,4138.26
2015-10-23,4138.27
2015-10-24,4138.27
2015-10-25,4138.4
2015-10-26,4138.28
2015-10-27,4138.26
2015-10-28,4138.3
2015-10-29,4138.28
2015-10-30,4138.37
2015-10-31,4138.47
2015-11-01,4138.41
2015-11-02,4138.21
2015-11-03,4138.15
2015-11-04,4138.26
2015-11-05,4138.28
2015-11-06,4138.27
2015-11-07,4138.29
2015-11-08,4138.38
2015-11-09,4138.29
2015-11-10,4138.28
2015-11-11,4138.4
2015-11-12,4138.27
2015-11-13,4138.31
2015-11-14,4138.43
2015-11-15,4138.37
2015-11-16,4138.36
2015-11-17,4138.63
2015-11-18,4138.34
2015-11-19,4138.5
2015-11-20,4138.18
2015-11-21,4138.23
2015-11-22,4138.28
2015-11-23,4138.29
2015-11-24,4138.28
2015-11-25,4137.98
2015-11-26,4138.19
2015-11-27,4138.23
2015-11-28,4138.28
2015-11-29,4138.3
2015-11-30,4138.3
2015-12-01,4138.31
2015-12-02,4138.34
2015-12-03,4138.57
2015-12-04,4138.46
2015-12-05,4138.54
2015-12-06,4138.72
2015-12-07,4138.82
2015-12-08,4138.8
2015-12-09,4138.82
2015-12-10,4138.98
2015-12-11,4138.91
2015-12-12,4139.15
2015-12-13,4139.0
2015-12-14,4138.92
2015-12-15,4138.98
2015-12-16,4139.02
2015-12-17,4139.22
2015-12-18,4139.26
2015-12-19,4139.18
2015-12-20,4139.47
2015-12-21,4139.61
2015-12-22,4139.38
2015-12-23,4139.48
2015-12-24,4139.51
2015-12-25,4139.52
2015-12-26,4139.54
2015-12-27,4139.57
2015-12-28,4139.6
2015-12-29,4139.63
2015-12-30,4139.66
2015-12-31,4139.68
2016-01-01,4139.7
2016-01-02,4139.72
2016-01-03,4139.74
2016-01-04,4139.76
2016-01-05,4139.78
2016-01-06,4139.81
2016-01-07,4139.84
2016-01-08,4139.84
2016-01-09,4139.88
2016-01-10,4139.9
2016-01-11,4139.92
2016-01-12,4139.95
2016-01-13,4140.0
2016-01-14,4140.03
2016-01-15,4140.08
2016-01-16,4140.13
2016-01-17,4140.19
2016-01-18,4140.26
2016-01-19,4140.32
2016-01-20,4140.36
2016-01-21,4140.41
2016-01-22,4140.48
2016-01-23,4140.56
2016-01-24,4140.62
2016-01-25,4140.67
2016-01-26,4140.73
2016-01-27,4140.77
2016-01-28,4140.84
2016-01-29,4140.91
2016-01-30,4140.96
2016-01-31,4140.97
2016-02-01,4141.05
2016-02-02,4141.12
2016-02-03,4141.19
2016-02-04,4141.22
2016-02-05,4141.23
2016-02-06,4141.26
2016-02-07,4141.27
2016-02-08,4141.29
2016-02-09,4141.31
2016-02-10,4141.34
2016-02-11,4141.36
2016-02-12,4141.38
2016-02-13,4141.41
2016-02-14,4141.48
2016-02-15,4141.51
2016-02-16,4141.51
2016-02-17,4141.83
2016-02-18,4141.88
2016-02-19,4141.92
2016-02-20,4141.72
2016-02-21,4141.77
2016-02-22,4141.82
2016-02-23,4141.84
2016-02-24,4141.88
2016-02-25,4141.92
2016-02-26,4141.98
2016-02-27,4142.02
2016-02-28,4142.05
2016-02-29,4142.09
2016-03-01,4142.25
2016-03-02,4142.25
2016-03-03,4142.2
2016-03-04,4142.3
2016-03-05,4142.57
2016-03-06,4142.52
2016-03-07,4142.41
2016-03-08,4142.55
2016-03-09,4142.79
2016-03-10,4142.77
2016-03-11,4142.87
2016-03-12,4143.02
2016-03-13,4143.17
2016-03-14,4143.04
2016-03-15,4143.05
2016-03-16,4142.98
2016-03-17,4142.9
2016-03-18,4142.86
2016-03-19,4142.9
2016-03-20,4142.99
2016-03-21,4143.03
2016-03-22,4142.95
2016-03-23,4142.99
2016-03-24,4142.97
2016-03-25,4142.92
2016-03-26,4142.93
2016-03-27,4142.9
2016-03-28,4142.78
2016-03-29,4142.64
2016-03-30,4142.86
2016-03-31,4142.87
2016-04-01,4142.86
2016-04-02,4142.88
2016-04-03,4142.9
2016-04-04,4142.87
2016-04-05,4142.88
2016-04-06,4142.9
2016-04-07,4142.92
2016-04-08,4142.94
2016-04-09,4142.98
2016-04-10,4143.03
2016-04-11,4143.06
2016-04-12,4143.06
2016-04-13,4143.19
2016-04-14,4143.26
2016-04-15,4143.14
2016-04-16,4143.16
2016-04-17,4143.17
2016-04-18,4143.18
2016-04-19,4143.18
2016-04-20,4143.23
2016-04-21,4143.25
2016-04-22,4143.31
2016-04-23,4143.15
2016-04-24,4143.1
2016-04-25,4143.02
2016-04-26,4143.12
2016-04-27,4143.09
2016-04-28,4143.07
2016-04-29,4142.99
2016-04-30,4143.0
2016-05-01,4143.02
2016-05-02,4143.02
2016-05-03,4143.0
2016-05-04,4143.0
2016-05-05,4142.98
2016-05-06,4142.88
2016-05-07,4142.91
2016-05-08,4142.93
2016-05-09,4142.9
2016-05-10,4142.9
2016-05-11,4142.9
2016-05-12,4142.89
2016-05-13,4142.9
2016-05-14,4142.84
2016-05-15,4142.78
2016-05-16,4142.78
2016-05-17,4142.78
2016-05-18,4142.75
2016-05-19,4142.68
2016-05-20,4142.66
2016-05-21,4142.72
2016-05-22,4142.72
2016-05-23,4142.69
2016-05-24,4142.66
2016-05-25,4142.65
2016-05-26,4142.63
2016-05-27,4142.6
2016-05-28,4142.6
2016-05-29,4142.58
2016-05-30,4142.58
2016-05-31,4142.55
2016-06-01,4142.54
2016-06-02,4142.52
2016-06-03,4142.48
2016-06-04,4142.44
2016-06-05,4142.43
2016-06-06,4142.37
2016-06-07,4142.37
2016-06-08,4142.35
2016-06-09,4142.24
2016-06-10,4142.14
2016-06-11,4142.11
2016-06-12,4142.06
2016-06-13,4142.02
2016-06-14,4141.97
2016-06-15,4141.93
2016-06-16,4141.96
2016-06-17,4141.9
2016-06-18,4141.93
2016-06-19,4141.9
2016-06-20,4141.9
2016-06-21,4141.9
2016-06-22,4141.87
2016-06-23,4141.83
2016-06-24,4141.8
2016-06-25,4141.76
2016-06-26,4141.74
2016-06-27,4141.71
2016-06-28,4141.65
2016-06-29,4141.6
2016-06-30,4141.53
2016-07-01,4141.49
2016-07-02,4141.45
2016-07-03,4141.41
2016-07-04,4141.35
2016-07-05,4141.3
2016-07-06,4141.28
2016-07-07,4141.24
2016-07-08,4141.27
2016-07-09,4141.18
2016-07-10,4141.11
2016-07-11,4141.07
2016-07-12,4141.03
2016-07-13,4141.0
2016-07-14,4140.96
2016-07-15,4140.9
2016-07-16,4140.88
2016-07-17,4140.85
2016-07-18,4140.84
2016-07-19,4140.8
2016-07-20,4140.77
2016-07-21,4140.72
2016-07-22,4140.65
2016-07-23,4140.58
2016-07-24,4140.53
2016-07-25,4140.49
2016-07-26,4140.46
2016-07-27,4140.4
2016-07-28,4140.35
2016-07-29,4140.3
2016-07-30,4140.24
2016-07-31,4140.18
2016-08-01,4140.14
2016-08-02,4140.1
2016-08-03,4140.01
2016-08-04,4139.96
2016-08-05,4139.97
2016-08-06,4139.91
2016-08-07,4139.85
2016-08-08,4139.79
2016-08-09,4139.77
2016-08-10,4139.71
2016-08-11,4139.7
2016-08-12,4139.67
2016-08-13,4139.64
2016-08-14,4139.59
2016-08-15,4139.54
2016-08-16,4139.47
2016-08-17,4139.4
2016-08-18,4139.34
2016-08-19,4139.28
2016-08-20,4139.21
2016-08-21,4139.17
2016-08-22,4139.09
2016-08-23,4139.02
2016-08-24,4138.92
2016-08-25,4138.87
2016-08-26,4138.85
2016-08-27,4138.83
2016-08-28,4138.81
2016-08-29,4138.78
2016-08-30,4138.74
2016-08-31,4138.67
2016-09-01,4138.63
2016-09-02,4138.57
2016-09-03,4138.5
2016-09-04,4138.48
2016-09-05,4138.44
2016-09-06,4138.43
2016-09-07,4138.42
2016-09-08,4138.39
2016-09-09,4138.3
2016-09-10,4138.31
2016-09-11,4138.3
2016-09-12,4138.05
2016-09-13,4138.11
2016-09-14,4138.2
2016-09-15,4138.17
2016-09-16,4138.16
2016-09-17,4138.17
2016-09-18,4138.17
2016-09-19,4138.11
2016-09-20,4138.06
2016-09-21,4138.03
2016-09-22,4137.95
2016-09-23,4138.12
2016-09-24,4138.08
2016-09-25,4138.08
2016-09-26,4138.09
2016-09-27,4138.1
2016-09-28,4138.11
2016-09-29,4138.15
2016-09-30,4138.16
2016-10-01,4138.18
2016-10-02,4138.12
2016-10-03,4138.28
2016-10-04,4138.18
2016-10-05,4138.2
2016-10-06,4138.15
2016-10-07,4138.13
2016-10-08,4138.11
2016-10-09,4138.13
2016-10-10,4138.13
2016-10-11,4138.12
2016-10-12,4138.07
2016-10-13,4138.51
2016-10-14,4138.45
2016-10-15,4138.78
2016-10-16,4138.66
2016-10-17,4138.5
2016-10-18,4138.45
2016-10-19,4138.37
2016-10-20,4138.39
2016-10-21,4138.38
2016-10-22,4138.39
2016-10-23,4138.55
2016-10-24,4138.96
2016-10-25,4138.47
2016-10-26,4138.93
2016-10-27,4138.62
2016-10-28,4138.49
2016-10-29,4138.56
2016-10-30,4138.92
2016-10-31,4138.79
2016-11-01,4138.75
2016-11-02,4138.68
2016-11-03,4138.69
2016-11-04,4138.71
2016-11-05,4138.79
2016-11-06,4138.76
2016-11-07,4138.74
2016-11-08,4138.74
2016-11-09,4138.74
2016-11-10,4138.73
2016-11-11,4138.84
2016-11-12,4138.82
2016-11-13,4138.79
2016-11-14,4138.91
2016-11-15,4138.94
2016-11-16,4138.86
2016-11-17,4138.88
2016-11-18,4139.08
2016-11-19,4139.3
2016-11-20,4139.07
2016-11-21,4139.0
2016-11-22,4139.17
2016-11-23,4139.16
2016-11-24,4139.36
2016-11-25,4139.39
2016-11-26,4139.42
2016-11-27,4139.23
2016-11-28,4139.09
2016-11-29,4139.2
2016-11-30,4139.17
2016-12-01,4139.18
2016-12-02,4139.21
2016-12-03,4139.28
2016-12-04,4139.33
2016-12-05,4139.32
2016-12-06,4139.26
2016-12-07,4139.25
2016-12-08,4139.38
2016-12-09,4139.48
2016-12-10,4139.51
2016-12-11,4139.63
2016-12-12,4139.57
2016-12-13,4139.54
2016-12-14,4139.68
2016-12-15,4139.77
2016-12-16,4139.74
2016-12-17,4139.83
2016-12-18,4139.87
2016-12-19,4139.9
2016-12-20,4139.94
2016-12-21,4139.96
2016-12-22,4139.97
2016-12-23,4139.97
2016-12-24,4139.94
2016-12-25,4139.91
2016-12-26,4139.89
2016-12-27,4139.89
2016-12-28,4139.88
2016-12-29,4139.89
2016-12-30,4139.9
2016-12-31,4139.93
2017-01-01,4139.96
2017-01-02,4139.97
2017-01-03,4139.98
2017-01-04,4140.07
2017-01-05,4140.09
2017-01-06,4140.09
2017-01-07,4140.13
2017-01-08,4140.22
2017-01-09,4140.3
2017-01-10,4140.38
2017-01-11,4140.44
2017-01-12,4140.46
2017-01-13,4140.49
2017-01-14,4140.52
2017-01-15,4140.54
2017-01-16,4140.56
2017-01-17,4140.57
2017-01-18,4140.62
2017-01-19,4140.65
2017-01-20,4140.68
2017-01-21,4140.71
2017-01-22,4140.74
2017-01-23,4140.76
2017-01-24,4140.78
2017-01-25,4140.8
2017-01-26,4140.81
2017-01-27,4140.82
2017-01-28,4140.83
2017-01-29,4140.84
2017-01-30,4140.85
2017-01-31,4140.88
2017-02-01,4140.9
2017-02-02,4140.93
2017-02-03,4140.98
2017-02-04,4141.03
2017-02-05,4141.07
2017-02-06,4141.12
2017-02-07,4141.24
2017-02-08,4141.31
2017-02-09,4141.41
2017-02-10,4141.49
2017-02-11,4141.51
2017-02-12,4141.56
2017-02-13,4141.65
2017-02-14,4141.75
2017-02-15,4141.85
2017-02-16,4141.96
2017-02-17,4142.01
2017-02-18,4142.13
2017-02-19,4142.24
2017-02-20,4142.37
2017-02-21,4142.47
2017-02-22,4142.51
2017-02-23,4142.48
2017-02-24,4142.47
2017-02-25,4142.45
2017-02-26,4142.45
2017-02-27,4142.43
2017-02-28,4142.42
2017-03-01,4142.39
2017-03-02,4142.38
2017-03-03,4142.43
2017-03-04,4142.51
2017-03-05,4142.51
2017-03-06,4142.62
2017-03-07,4142.69
2017-03-08,4142.67
2017-03-09,4142.68
2017-03-10,4142.65
2017-03-11,4142.67
2017-03-12,4142.65
2017-03-13,4142.65
2017-03-14,4142.63
2017-03-15,4142.72
2017-03-16,4142.6
2017-03-17,4142.62
2017-03-18,4142.67
2017-03-19,4142.6
2017-03-20,4142.75
2017-03-21,4142.81
2017-03-22,4142.68
2017-03-23,4142.79
2017-03-24,4142.92
2017-03-25,4142.72
2017-03-26,4142.81
2017-03-27,4142.69
2017-03-28,4142.67
2017-03-29,4142.7
2017-03-30,4142.49
2017-03-31,4142.65
2017-04-01,4142.71
2017-04-02,4142.69
2017-04-03,4142.72
2017-04-04,
2017-04-05,
2017-04-06,
2017-04-07,4143.05
2017-04-08,4142.85
2017-04-09,4142.99
2017-04-10,4142.89
2017-04-11,4142.98
2017-04-12,4143.05
2017-04-13,4142.9
2017-04-14,4142.88
2017-04-15,4142.81
2017-04-16,4142.86
2017-04-17,4142.87
2017-04-18,4142.79
2017-04-19,4142.88
2017-04-20,4142.78
2017-04-21,4142.77
2017-04-22,4142.8
2017-04-23,4142.82
2017-04-24,4142.9
2017-04-25,4142.91
2017-04-26,4142.87
2017-04-27,4142.85
2017-04-28,4142.86
2017-04-29,4142.87
2017-04-30,4142.82
2017-05-01,4142.86
2017-05-02,4142.84
2017-05-03,4142.83
2017-05-04,4142.89
2017-05-05,4142.8
2017-05-06,4142.67
2017-05-07,4142.7
2017-05-08,4142.77
2017-05-09,4142.77
2017-05-10,4142.8
2017-05-11,4142.93
2017-05-12,4142.76
2017-05-13,4142.77
2017-05-14,4142.67
2017-05-15,4142.67
2017-05-16,4142.72
2017-05-17,4142.66
2017-05-18,4142.65
2017-05-19,4142.64
2017-05-20,4142.61
2017-05-21,4142.57
2017-05-22,4142.55
2017-05-23,4142.52
2017-05-24,4142.44
2017-05-25,4142.41
2017-05-26,4142.41
2017-05-27,4142.39
2017-05-28,4142.37
2017-05-29,4142.35
2017-05-30,4142.33
2017-05-31,4142.34
2017-06-01,4142.29
2017-06-02,4142.29
2017-06-03,4142.26
2017-06-04,4142.21
2017-06-05,4142.19
2017-06-06,4142.17
2017-06-07,4142.27
2017-06-08,4142.31
2017-06-09,4142.14
2017-06-10,4142.14
2017-06-11,4142.0
2017-06-12,4142.02
2017-06-13,4142.06
2017-06-14,4142.05
2017-06-15,4142.11
2017-06-16,4142.02